This demonstration page uses our WeatherBlox Daily Observations layout. Learn more.

Left ArrowRight Arrow

Hourly Observations for February 14, 2023

Temp ( °F °C ) Dew Point ( °F °C ) Humidity (%) Winds ( mph kmh ) Pressure ( in mb ) Visibility ( mi km ) Precip ( " mm )
12:53 am 00:53 Cloudy 47 8.3 34 1.1 60 60 SSE 10 17 29.61 1003 10 16 0.01 0.13
1:53 am 01:53 Cloudy with Light Rain 45 7.2 38 3.3 76 76 SSE 6 9 29.60 1002 9 14 0.01 0.13
2:53 am 02:53 Cloudy with Light Rain 45 7.2 40 4.4 82 82 SE 7 11 29.53 1000 10 16 0.03 0.76
3:38 am 03:38 Cloudy with Light Rain 46 7.8 41 5 82 82 SSE 10 17 29.54 1000 10 16 0.01 0.25
3:53 am 03:53 Cloudy with Light Rain 45 7.2 41 5 86 86 SE 9 15 29.49 999 10 16 0.01 0.25
4:43 am 04:43 Cloudy with Light Rain 45 7.2 43 6.1 93 93 SSE 10 17 29.50 999 5 8 0.04 1.02
4:53 am 04:53 Cloudy with Light Rain 46 7.8 43 6.1 89 89 SE 12 19 29.43 997 5 8 0.05 1.27
5:41 am 05:41 Cloudy with Light Rain 46 7.8 45 7.2 96 96 SSE 14 22 29.43 997 5 8 0.06 1.52
5:53 am 05:53 Cloudy with Light Rain 46 7.8 45 7.2 96 96 SSE 13 20 29.41 996 8 13 0.06 1.52
6:09 am 06:09 Cloudy with Rain 47 8.3 46 7.8 97 97 SSE 14 22 29.42 996 3 5 0.04 1.02
6:48 am 06:48 Cloudy with Light Rain 48 9 46 8 93 93 SSE 20 31 29.39 995 6 10 0.14 3.56
6:53 am 06:53 Cloudy with Light Rain 48 8.9 46 7.8 93 93 SSE 22 35 29.36 994 6 10 0.14 3.56
7:19 am 07:19 Cloudy with Light Rain 48 8.9 46 7.8 93 93 SE 22 35 29.36 994 8 13 0.02 0.51
7:53 am 07:53 Cloudy 48 8.9 46 7.8 93 93 SE 16 26 29.31 993 10 16 0.02 0.51
8:53 am 08:53 Mostly Cloudy 48 8.9 46 7.8 93 93 S 14 22 29.32 993 10 16 0.00 0.00
9:53 am 09:53 Partly Cloudy 49 9.4 46 7.8 90 90 S 18 30 29.30 992 10 16 0.00 0.00
10:53 am 10:53 Mostly Cloudy 51 10.6 45 7.2 79 79 S 18 30 29.26 991 10 16 0.00 0.00
11:53 am 11:53 Partly Cloudy 54 12.2 45 7.2 71 71 S 25 41 29.21 989 10 16 0.00 0.00
12:53 pm 12:53 Mostly Cloudy 56 13.3 42 5.6 60 60 S 23 37 29.16 987 10 16 0.00 0.00
1:53 pm 13:53 Cloudy with Light Rain 53 11.7 39 3.9 59 59 S 22 35 29.16 988 10 16 0.01 0.13
2:53 pm 14:53 Cloudy with Light Rain 48 8.9 42 5.6 80 80 SW 15 24 29.19 989 10 16 0.01 0.13
3:53 pm 15:53 Mostly Cloudy 51 10.6 42 5.6 71 71 W 10 17 29.21 989 10 16 0.01 0.13
4:53 pm 16:53 Mostly Cloudy 51 10.6 40 4.4 65 65 W 17 28 29.28 991 10 16 0.00 0.00
5:53 pm 17:53 Mostly Sunny 49 9.4 39 3.9 68 68 W 13 20 29.34 994 10 16 0.00 0.00
6:53 pm 18:53 Mostly Clear 45 7.2 38 3.3 76 76 WSW 10 17 29.41 996 10 16 0.00 0.00
7:53 pm 19:53 Clear 45 7.2 38 3.3 76 76 W 9 15 29.49 999 10 16 0.00 0.00
8:53 pm 20:53 Clear 44 6.7 36 2.2 73 73 W 9 15 29.56 1001 10 16 0.00 0.00
9:53 pm 21:53 Clear 43 6.1 35 1.7 73 73 W 10 17 29.61 1003 10 16 0.00 0.00
10:53 pm 22:53 Partly Cloudy 42 5.6 33 0.6 70 70 NW 15 24 29.64 1004 10 16 0.00 0.00
11:53 pm 23:53 Mostly Clear 40 4.4 32 0 73 73 NW 10 17 29.67 1005 10 16 0.00 0.00

Powered by AerisWeather